Wind_Speed
6 7 7 6 5 4 4 3 3 3 2 2 1 1 1 1 3 3 4 3 3 3 4 4 5 5 6 6 6 7 6 7 7 8 8 8 8 8 8 8 9 9 9
6 6 5 5 4 4 3 3 2 2 1 0 1 2 3 3 4 4 4 4 4 5 6 6 6 6 6 7 7 7 7 8 8 8 9 9 9 9 10 10 11 11 11
6 5 4 4 3 3 2 2 1 1 0 1 2 3 4 4 4 5 6 6 6 6 6 7 7 7 7 7 8 8 8 8 9 9 8 9 9 10 11 12 12 12 13
5 5 5 4 3 2 1 0 0 1 1 2 3 4 4 4 5 6 7 7 8 7 7 7 8 7 7 8 8 8 9 10 10 10 10 10 10 11 11 12 13 14 13
5 5 5 4 3 2 2 1 1 1 2 3 4 4 5 5 5 6 6 7 8 8 8 8 9 8 8 9 9 10 9 10 11 11 11 11 11 11 12 12 13 14 14
5 5 4 4 3 3 3 2 1 3 3 4 4 5 5 6 6 6 7 7 8 8 9 9 10 10 9 10 10 10 10 10 11 12 12 12 12 13 13 13 13 14 14
5 4 3 3 3 3 3 3 3 4 4 5 6 6 6 6 7 7 8 8 8 9 9 10 10 10 10 10 11 11 11 11 11 12 12 13 13 13 13 14 14 14 14
5 4 3 3 3 3 3 4 4 5 5 6 6 6 6 7 8 8 8 9 10 10 11 10 11 11 11 11 11 11 12 12 12 12 13 14 14 14 14 15 14 14 15
4 3 3 2 3 4 4 5 5 5 5 6 7 7 7 8 9 9 9 10 11 11 11 11 12 12 12 12 12 12 12 13 13 13 13 14 14 15 15 15 15 15 14
4 3 3 3 3 4 5 6 6 6 6 7 7 8 8 9 9 10 10 11 11 12 12 12 13 13 13 13 13 13 13 13 14 14 14 14 14 15 14 14 14 14 14
4 4 4 4 5 6 6 7 6 7 7 8 8 9 9 9 10 11 11 12 12 12 13 13 14 14 14 14 14 14 14 14 14 14 14 15 15 16 15 14 14 14 14
5 5 5 5 6 7 7 7 8 8 8 9 9 9 10 10 11 11 12 13 13 13 13 13 14 14 14 15 14 14 14 14 14 14 14 15 15 15 15 14 14 14 13
6 6 6 7 8 8 8 8 9 9 9 9 10 10 10 11 12 13 13 14 14 13 13 13 14 14 14 15 14 14 14 14 14 14 15 15 15 15 15 14 14 14 14
7 7 8 8 9 9 10 10 11 11 11 11 11 11 11 12 13 14 14 14 14 14 13 13 14 14 14 14 15 14 14 14 13 14 14 15 15 15 15 15 14 15 15
8 8 8 10 10 11 12 12 11 12 12 12 12 12 13 13 14 14 15 15 15 14 14 14 14 14 14 14 14 14 13 13 13 14 14 14 14 15 15 14 14 14 14
9 10 10 11 12 13 13 13 12 12 13 13 14 14 15 15 15 15 16 16 15 15 14 15 15 15 14 14 14 14 14 14 15 15 15 14 15 14 14 14 14 14 15
10 11 12 13 13 13 13 13 13 13 14 15 15 15 16 16 16 16 16 17 16 16 16 16 16 16 15 15 15 15 15 15 15 15 15 14 14 14 15 15 15 15 15
11 12 13 14 15 14 14 14 14 15 15 16 17 17 17 17 17 17 17 17 18 17 17 17 17 17 16 16 16 16 16 16 16 16 16 15 15 15 15 16 16 16 16
13 14 14 15 15 15 16 16 16 16 17 17 18 18 18 18 19 19 18 17 18 18 18 18 18 18 18 17 17 17 16 16 16 16 16 15 15 15 16 17 17 17 18
16 16 16 16 16 17 17 17 18 19 19 19 19 20 19 20 20 20 19 19 19 20 20 19 19 19 19 18 18 17 17 16 16 16 15 15 15 15 16 17 17 17 18
18 18 18 18 19 20 20 19 20 21 21 21 21 21 21 21 21 21 21 21 20 21 20 20 20 20 19 19 18 18 17 17 17 17 17 16 16 16 17 17 17 19 19
19 20 20 21 21 22 22 22 23 23 23 23 24 23 23 23 22 22 22 22 21 22 22 21 21 20 19 19 19 19 18 18 17 17 18 18 18 18 18 18 18 19 19
21 21 22 23 24 24 24 24 24 24 25 25 26 26 26 25 24 24 23 22 23 23 23 22 22 21 21 21 20 19 18 18 18 18 19 19 19 19 19 20 20 20 20
24 24 25 26 26 26 25 25 25 26 26 26 26 26 26 26 26 25 24 24 24 24 24 24 23 23 22 22 21 21 20 20 20 21 20 20 20 20 21 21 21 21 21
27 27 27 28 28 28 27 27 27 27 27 26 27 27 27 27 27 26 25 25 25 25 25 24 24 23 23 23 23 22 22 23 22 23 23 22 22 23 23 23 23 23 23
28 29 29 29 29 29 29 29 29 28 28 27 28 28 28 28 27 26 26 26 26 26 26 26 25 25 24 24 25 25 24 25 25 24 24 24 25 24 24 24 24 24 23
Wind_Direction
129 119 120 122 121 121 116 105 108 112 109 96 76 320 332 306 325 318 310 305 307 307 308 307 295 292 290 286 286 283 277 274 278 284 281 273 268 263 263 262 259 262 264
121 115 110 116 127 128 123 114 117 125 120 136 268 285 298 302 310 313 306 302 298 296 304 301 295 291 291 290 290 287 280 272 276 283 283 278 275 268 264 263 261 263 265
120 118 116 118 120 125 128 128 148 150 217 267 298 313 318 306 305 305 297 294 290 289 297 300 298 291 293 288 292 286 281 280 278 278 279 275 278 274 271 268 265 264 265
115 106 109 110 112 115 110 101 295 275 292 303 305 312 322 317 303 299 299 301 298 293 291 294 295 292 290 290 295 296 289 281 276 274 275 274 275 276 275 271 267 265 264
105 102 99 94 92 77 54 33 353 332 320 312 308 311 316 317 312 305 304 305 301 298 295 294 295 294 292 292 293 297 296 286 276 273 273 272 271 274 276 272 270 268 263
94 94 92 85 63 53 40 25 349 330 325 317 310 306 307 308 311 306 307 308 306 302 298 293 293 292 292 291 294 295 294 292 286 280 276 272 269 270 275 273 271 271 267
77 74 72 63 43 32 26 18 1 339 324 316 315 313 309 304 314 312 311 310 309 302 298 298 297 295 295 293 290 291 292 292 287 284 281 276 270 271 274 272 271 269 267
71 63 54 44 28 6 355 350 349 344 337 331 327 325 319 316 314 312 312 313 309 304 300 300 297 294 294 291 288 286 286 286 284 284 282 279 275 276 277 270 267 264 264
57 51 42 27 358 348 339 332 329 328 328 328 327 326 321 318 319 316 315 313 311 307 305 300 297 296 292 289 288 285 285 282 283 283 282 282 278 278 280 276 269 265 262
43 34 12 347 341 340 338 332 325 322 321 324 324 322 320 320 319 315 314 313 311 307 305 302 301 297 293 290 289 287 285 283 281 280 280 281 280 279 279 277 272 266 265
22 11 0 352 344 338 336 335 327 321 318 318 320 320 318 315 315 315 314 313 311 307 305 304 304 298 294 290 288 288 287 287 284 280 280 281 280 278 277 275 272 270 268
6 1 354 347 343 337 331 329 325 323 320 318 319 318 317 315 312 313 313 313 311 307 305 304 305 300 296 292 289 290 288 286 286 282 281 281 280 279 279 278 274 270 269
359 354 345 337 336 338 333 328 323 318 318 318 319 316 314 314 313 314 315 315 313 310 307 306 306 303 301 296 291 291 288 287 286 283 281 281 278 275 277 278 274 270 269
353 350 345 339 332 330 331 327 324 321 318 319 317 315 314 314 316 316 316 315 315 313 310 307 306 304 302 300 297 295 291 289 286 285 283 280 279 276 276 275 273 272 270
345 340 338 332 326 323 322 324 320 319 316 314 312 312 313 314 317 316 316 315 313 311 308 305 303 306 305 302 300 300 297 293 290 288 286 283 282 278 274 271 272 271 268
339 333 327 327 323 319 316 316 315 314 316 316 315 312 312 312 313 314 315 316 315 311 308 307 305 304 306 303 302 302 297 293 292 290 286 285 283 279 271 269 272 270 269
329 329 325 322 321 317 314 312 312 311 311 311 312 310 309 309 310 311 312 312 312 310 308 307 305 302 302 301 300 298 296 294 293 291 289 286 282 275 273 271 271 272 271
318 318 319 320 320 317 312 308 307 306 307 308 309 308 307 307 309 310 310 309 308 307 306 306 304 300 298 298 299 297 295 293 292 291 289 287 284 276 275 273 270 268 270
313 311 315 318 317 313 308 304 303 303 303 302 304 306 304 307 309 308 307 308 307 307 305 303 301 299 296 296 297 294 292 290 291 290 289 287 284 278 276 274 271 269 270
311 309 308 309 309 308 306 304 305 303 302 303 302 303 304 307 308 308 306 306 306 306 303 302 299 299 297 296 297 295 292 290 290 289 288 285 285 284 281 278 275 273 273
306 308 308 306 306 304 301 301 302 303 302 299 299 299 301 303 304 304 304 304 303 304 305 303 300 297 297 295 294 294 292 290 289 289 287 285 285 285 284 280 279 276 274
301 303 305 304 302 302 298 297 300 301 301 299 300 298 298 298 300 301 301 301 301 302 302 303 302 298 298 295 294 293 291 290 288 286 285 285 284 284 285 282 280 279 277
295 297 298 299 301 302 299 297 297 300 299 299 299 297 297 299 296 297 296 297 297 298 299 299 298 297 297 296 294 292 290 289 287 286 285 284 282 282 282 281 281 280 279
295 295 296 299 300 300 297 297 296 299 299 297 297 297 298 298 295 294 293 295 295 295 296 294 293 293 293 293 292 290 288 286 285 285 284 282 283 282 281 280 278 278 279
292 296 297 301 301 299 296 296 295 297 298 296 296 297 297 297 296 293 293 293 292 291 291 290 288 289 289 289 289 287 287 286 284 284 284 283 283 282 281 278 277 276 277
293 294 295 298 300 299 297 294 294 295 296 296 296 296 296 296 294 294 293 292 291 290 289 288 286 285 285 285 285 285 284 285 284 284 284 284 284 283 281 279 278 276 277
Height
5893 5894 5894 5894 5894 5895 5895 5895 5895 5895 5895 5895 5895 5895 5894 5894 5893 5892 5892 5891 5890 5890 5889 5888 5887 5886 5886 5885 5884 5884 5883 5883 5882 5881 5881 5880 5880 5880 5880 5880 5880 5879 5879
5894 5894 5894 5895 5895 5895 5895 5895 5895 5896 5895 5895 5895 5894 5894 5893 5892 5892 5891 5890 5889 5888 5887 5886 5885 5885 5884 5883 5882 5882 5881 5880 5880 5879 5879 5878 5878 5877 5877 5877 5877 5877 5877
5894 5895 5895 5895 5896 5896 5895 5895 5895 5895 5895 5895 5894 5894 5893 5892 5892 5891 5890 5889 5888 5887 5886 5884 5883 5882 5882 5881 5880 5879 5878 5878 5877 5876 5876 5875 5875 5875 5874 5874 5874 5874 5874
5895 5895 5896 5896 5896 5896 5896 5896 5895 5895 5895 5894 5894 5893 5892 5891 5891 5890 5889 5887 5886 5885 5884 5883 5882 5880 5880 5879 5878 5877 5876 5875 5874 5874 5873 5873 5872 5872 5872 5871 5871 5871 5871
5896 5896 5896 5896 5896 5896 5896 5895 5895 5895 5894 5894 5893 5892 5891 5890 5889 5888 5887 5885 5884 5883 5882 5881 5880 5879 5877 5877 5876 5875 5874 5873 5872 5871 5871 5870 5870 5869 5869 5869 5868 5868 5868
5897 5897 5897 5897 5897 5896 5896 5895 5895 5894 5894 5893 5892 5891 5890 5889 5888 5887 5885 5884 5882 5881 5880 5879 5878 5876 5875 5874 5873 5872 5871 5870 5869 5869 5868 5867 5867 5866 5866 5865 5865 5865 5864
5898 5897 5897 5897 5897 5896 5896 5895 5895 5894 5893 5892 5891 5890 5889 5888 5887 5886 5884 5882 5881 5879 5878 5876 5875 5874 5873 5871 5870 5870 5869 5867 5867 5866 5865 5864 5863 5863 5862 5862 5862 5861 5861
5898 5898 5897 5897 5897 5896 5895 5895 5894 5893 5892 5891 5890 5889 5887 5887 5885 5884 5883 5881 5879 5877 5875 5874 5873 5871 5870 5869 5868 5866 5866 5865 5864 5863 5862 5861 5860 5859 5859 5858 5858 5858 5857
5898 5898 5897 5897 5896 5896 5895 5894 5893 5892 5891 5890 5889 5888 5886 5885 5884 5882 5881 5879 5877 5875 5873 5872 5870 5868 5867 5866 5864 5863 5862 5861 5860 5860 5859 5858 5857 5856 5855 5855 5854 5854 5853
5898 5898 5897 5896 5896 5895 5894 5893 5892 5891 5890 5888 5887 5886 5885 5883 5882 5880 5879 5877 5875 5873 5871 5869 5867 5865 5864 5862 5861 5860 5859 5858 5857 5856 5855 5854 5853 5852 5852 5851 5850 5850 5850
5898 5897 5896 5895 5895 5894 5893 5891 5890 5889 5888 5886 5885 5883 5882 5881 5879 5878 5876 5874 5872 5870 5868 5866 5864 5862 5861 5859 5857 5856 5855 5854 5853 5852 5851 5851 5849 5849 5848 5847 5846 5846 5846
5898 5896 5895 5894 5893 5892 5891 5890 5889 5887 5886 5884 5883 5881 5880 5878 5877 5875 5873 5871 5869 5867 5865 5863 5861 5859 5857 5855 5854 5853 5851 5850 5849 5848 5847 5847 5846 5845 5844 5843 5842 5842 5842
5897 5895 5894 5894 5892 5891 5890 5888 5887 5885 5884 5882 5881 5879 5878 5876 5874 5872 5870 5868 5866 5864 5862 5860 5858 5856 5854 5852 5850 5849 5847 5846 5845 5844 5843 5842 5841 5840 5839 5839 5839 5838 5838
5895 5894 5893 5892 5891 5890 5888 5886 5885 5883 5881 5880 5878 5877 5875 5873 5871 5869 5867 5865 5863 5861 5859 5857 5854 5852 5850 5848 5847 5845 5844 5842 5841 5840 5839 5838 5837 5836 5835 5835 5834 5834 5834
5894 5893 5892 5891 5889 5888 5886 5884 5883 5881 5879 5877 5876 5874 5872 5870 5868 5866 5864 5862 5860 5858 5856 5854 5851 5849 5847 5845 5843 5842 5840 5839 5837 5836 5834 5833 5832 5832 5831 5831 5830 5830 5830
5893 5891 5890 5889 5887 5885 5883 5882 5880 5878 5877 5875 5873 5871 5869 5867 5865 5863 5861 5859 5856 5854 5852 5850 5848 5846 5844 5842 5840 5838 5837 5835 5834 5832 5831 5829 5828 5827 5827 5826 5826 5825 5825
5891 5889 5888 5886 5884 5882 5881 5879 5877 5875 5874 5872 5870 5868 5866 5863 5861 5859 5857 5855 5853 5851 5849 5847 5844 5842 5840 5838 5836 5835 5833 5831 5829 5828 5826 5825 5824 5823 5822 5822 5821 5821 5821
5888 5886 5885 5883 5881 5879 5877 5876 5874 5872 5870 5868 5866 5864 5862 5860 5858 5855 5853 5851 5848 5846 5845 5843 5840 5838 5836 5834 5832 5830 5829 5827 5825 5824 5822 5821 5819 5819 5818 5817 5817 5817 5816
5885 5883 5881 5880 5877 5875 5873 5871 5869 5868 5866 5864 5862 5860 5857 5855 5853 5851 5848 5846 5844 5842 5840 5838 5836 5834 5832 5829 5827 5826 5824 5822 5821 5819 5818 5817 5815 5815 5814 5813 5812 5812 5811
5881 5879 5877 5876 5874 5871 5869 5867 5865 5863 5861 5859 5857 5855 5853 5851 5848 5846 5844 5842 5839 5837 5835 5832 5831 5829 5827 5825 5823 5821 5819 5818 5816 5815 5814 5812 5811 5810 5809 5808 5807 5807 5806
5878 5875 5873 5871 5869 5867 5865 5862 5860 5858 5856 5854 5852 5850 5848 5845 5843 5841 5839 5836 5834 5832 5829 5827 5825 5823 5821 5819 5818 5816 5814 5813 5811 5810 5809 5808 5807 5806 5804 5803 5802 5801 5801
5873 5871 5869 5866 5864 5862 5859 5857 5855 5853 5851 5848 5846 5844 5842 5839 5837 5835 5833 5831 5829 5826 5824 5822 5820 5818 5815 5814 5812 5811 5809 5808 5806 5805 5804 5803 5801 5800 5799 5798 5797 5796 5795
5867 5865 5863 5861 5858 5855 5853 5851 5849 5846 5844 5842 5840 5838 5835 5833 5831 5828 5826 5824 5822 5820 5818 5816 5814 5812 5810 5809 5807 5805 5804 5802 5801 5800 5798 5797 5796 5795 5794 5793 5791 5790 5789
5861 5859 5857 5855 5852 5849 5847 5844 5842 5840 5837 5835 5833 5831 5828 5826 5823 5821 5819 5817 5815 5813 5811 5809 5808 5806 5804 5802 5801 5799 5798 5796 5795 5794 5793 5791 5790 5788 5787 5786 5785 5784 5783
5855 5852 5850 5848 5845 5842 5840 5837 5835 5833 5830 5828 5825 5823 5821 5818 5816 5814 5812 5810 5808 5806 5804 5802 5800 5799 5797 5796 5794 5792 5791 5790 5788 5787 5786 5785 5783 5782 5780 5779 5778 5777 5776
5848 5845 5843 5840 5837 5834 5831 5829 5827 5824 5822 5820 5817 5815 5813 5811 5809 5806 5804 5802 5800 5798 5796 5794 5792 5791 5789 5788 5787 5785 5784 5782 5781 5780 5779 5777 5776 5774 5773 5772 5771 5770 5769